Location: Lussas
(44.6119°N, 4.4726°E)
Time: 06:33:39
(UTC+00:00)

USA 307 - Pass Details

Date: 26 November 2020
Orbit: 564 x 583 km, 54.0° (Epoch: 11 January)

Event Time Altitude Azimuth Distance (km) Brightness Sun altitude
Exits shadow 04:59:01 25° 344° (NNW) 1,181 4.2 -19.9°
Maximum altitude 04:59:14 26° 350° (N) 1,178 4.3 -19.8°
Drops below altitude 10° 05:02:54 10° 47° (NE) 1,909 6.0 -19.2°
Sets 05:05:29 0° 60° (ENE) 2,810 7.2 -18.7°
